Notices

What's New in latest Release from April 7th, 2021:

- Updated Glossary, including Speed of Maximum Gust, and Total Hourly Precipitation

- Updated national and regional climate services offices contacts and prices information

- Addition of station inventory lists for 1981-2010, 1971-2000, and 1961-1990 Normals.

If you haven't already, please take our survey and provide feedback about our website: https://eccc.sondage-survey.ca/f/LanguageSelection.aspx?s=442ca660-fcf1-47c0-95a9-59707d6fd709

Hourly Data Report for April 20, 2018

KENORA A
ONTARIO
Current Station Operator: NAVCAN

49°47'18.000" N
94°21'47.000" W
409.70 m
6034076
71850
YQK

Download Data

Hourly Data (April 2018)
Hourly Data Report for April 20, 2018
TIME
LST
Temp Definition
°C
Dew Point Definition
°C
Rel Hum Definition
%
Precip. Amount Definition
mm

Wind Dir Definition
10's deg

Wind Spd Definition
km/h
Visibility Definition
km
Stn Press Definition
kPa
Hmdx Definition


Wind Chill Definition


Weather Definition


00:00 5.1 -12.4 27   20 8 24.1 97.92     Clear
01:00 3.1 -11.3 34   21 7 24.1 97.93     LegendNANA
02:00 1.4 -9.7 43   21 6 24.1 97.91     LegendNANA
03:00 1.7 -10.2 41   21 3 24.1 97.93     Clear
04:00 1.0 -9.2 46   21 4 24.1 97.95     LegendNANA
05:00 0.4 -8.2 53   21 4 24.1 97.96     LegendNANA
06:00 0.1 -6.7 60   22 5 24.1 97.99     Cloudy
07:00 1.9 -6.6 54   25 5 24.1 98.02     LegendNANA
08:00 6.0 -5.1 45   20 4 24.1 98.05     LegendNANA
09:00 8.9 -6.0 34   26 8 24.1 98.05     Mostly Cloudy
10:00 10.3 -5.0 34   21 4 24.1 98.04     LegendNANA
11:00 10.7 -4.5 34   23 13 24.1 98.03     LegendNANA
12:00 10.8 -5.2 32   23 17 32.2 98.00     Cloudy
13:00 11.1 -4.2 34   19 15 32.2 97.98     LegendNANA
14:00 11.8 -4.8 31   19 13 32.2 97.94     LegendNANA
15:00 11.4 -6.3 28   22 16 24.1 97.91     Mostly Cloudy
16:00 12.0 -5.0 30   19 14 32.2 97.87     LegendNANA
17:00 11.6 -6.8 27   22 13 24.1 97.85     LegendNANA
18:00 11.4 -7.1 27   21 9 24.1 97.84     Mostly Cloudy
19:00 10.3 -7.1 29   21 9 24.1 97.86     LegendNANA
20:00 9.3 -7.9 29   20 11 24.1 97.86     LegendNANA
21:00 7.4 -6.2 37   20 8 24.1 97.85     Mostly Cloudy
22:00 7.2 -5.1 41   22 10 24.1 97.85     LegendNANA
23:00 6.0 -2.8 53   25 11 24.1 97.87     LegendNANA

Notes on Data Quality.

Legend

  • E = Estimated
  • M = Missing
  • NA = Not Available*
  • [empty] = Indicates an unobserved value
Date modified: